Lone Rock, WI

11:02 PM CDT on April 27, 2017 (GMT -0500)
Tri-County Regional

Weather History for KLNR - August, 2014

Change the Weather History Date:

Sunday, August 17, 2014

  Actual Average Record
Temperature  
Mean Temperature 75 °F -  
Max Temperature 82 °F 78 °F 88 °F (2003)
Min Temperature 68 °F 56 °F 51 °F (2012)
Cooling Degree Days 10    
Growing Degree Days 25 (Base 50)    
Moisture  
Dew Point 64 °F    
Average Humidity 69    
Maximum Humidity 84    
Minimum Humidity 53    
Precipitation  
Precipitation 0.00 in - - ()
Sea Level Pressure  
Sea Level Pressure 29.95 in    
Wind  
Wind Speed 5 mph (ESE)    
Max Wind Speed 13 mph    
Max Gust Speed -    
Visibility 9 miles    
Events      
Averages and records for this station are not official NWS values.
T = Trace of Precipitation, MM = Missing Value Source: NWS Daily Summary

Daily Weather History Graph

Daily Weather History Graph

Search for Another Location

Airport or City:

Trip Planner

Search our weather history database for the weather conditions in past years. The results will help you decide how hot, cold, wet, or windy it might be!

Date:

Astronomy

Aug. 17, 2014 Rise Set
Actual Time 6:08 AM CDT 8:00 PM CDT
Civil Twilight 5:37 AM CDT 8:30 PM CDT
Nautical Twilight 5:00 AM CDT 9:08 PM CDT
Astronomical Twilight 4:19 AM CDT 9:48 PM CDT
Moon No Moon Rise 2:07 PM CDT (8/17)
Length of Visible Light 14h 53m
Length of Day
13h 51m
Waning Gibbous, 48% of the Moon is Illuminated
Aug 17
Waning Gibbous
Aug 25
New
Sep 2
First Quarter
Sep 8
Full
Sep 15
Last Quarter

Hourly Weather History & Observations

Time (CDT) Temp. Heat Index Dew Point Humidity Pressure Visibility Wind Dir Wind Speed Gust Speed Precip Events Conditions
12:13 AM 72.0 °F - 66.0 °F 81% 29.93 in 9.0 mi Calm Calm - N/A   Overcast
12:53 AM 71.6 °F - 66.2 °F 83% 29.93 in 8.0 mi Calm Calm - N/A   Overcast
12:56 AM 72.0 °F - 66.9 °F 84% 29.91 in 8.0 mi Calm Calm - N/A   Overcast
1:56 AM 73.0 °F - 66.9 °F 81% 29.90 in 9.0 mi Calm Calm - N/A   Overcast
2:53 AM 73.4 °F - 66.2 °F 78% 29.93 in 9.0 mi ENE 10.4 mph - 0.00 in   Overcast
2:56 AM 73.0 °F - 66.9 °F 81% 29.90 in 9.0 mi ENE 9.2 mph - 0.00 in   Overcast
3:12 AM 71.1 °F - 64.9 °F 81% 29.94 in 10.0 mi NE 10.4 mph - N/A   Overcast
3:56 AM 71.1 °F - 64.0 °F 78% 29.92 in 10.0 mi East 9.2 mph - N/A   Overcast
4:56 AM 69.1 °F - 63.0 °F 81% 29.93 in 10.0 mi ENE 8.1 mph - N/A   Overcast
5:56 AM 68.0 °F - 61.0 °F 78% 29.94 in 10.0 mi East 10.4 mph - N/A   Overcast
6:03 AM 68.0 °F - 61.0 °F 78% 29.97 in 10.0 mi East 6.9 mph - N/A   Overcast
6:17 AM 68.0 °F - 61.0 °F 78% 29.98 in 10.0 mi East 12.7 mph - N/A   Overcast
6:56 AM 68.0 °F - 61.0 °F 78% 29.96 in 10.0 mi ENE 6.9 mph - N/A   Overcast
7:56 AM 68.0 °F - 61.0 °F 78% 29.98 in 10.0 mi East 8.1 mph - N/A   Overcast
8:09 AM 69.1 °F - 60.1 °F 73% 30.01 in 10.0 mi East 12.7 mph - N/A   Overcast
8:56 AM 69.1 °F - 60.1 °F 73% 30.00 in 10.0 mi East 10.4 mph - N/A   Overcast
9:56 AM 70.0 °F - 60.1 °F 71% 30.00 in 10.0 mi East 10.4 mph - N/A   Overcast
11:56 AM 73.9 °F - 61.0 °F 64% 30.00 in 10.0 mi ENE 8.1 mph - N/A   Overcast
12:37 PM 78.1 °F - 62.1 °F 58% 30.01 in 10.0 mi East 9.2 mph - N/A   Scattered Clouds
12:56 PM 79.0 °F - 62.1 °F 56% 29.98 in 10.0 mi East 8.1 mph - N/A   Scattered Clouds
1:56 PM 79.0 °F - 63.0 °F 58% 29.96 in 10.0 mi SE 6.9 mph - N/A   Scattered Clouds
2:09 PM 80.1 °F 81.5 °F 63.0 °F 56% 29.99 in 10.0 mi SE 8.1 mph - N/A   Mostly Cloudy
2:49 PM 81.0 °F 82.5 °F 64.0 °F 56% 29.98 in 10.0 mi Calm Calm - N/A   Scattered Clouds
2:56 PM 81.0 °F 82.2 °F 63.0 °F 54% 29.96 in 10.0 mi SE 6.9 mph - N/A   Scattered Clouds
3:56 PM 81.0 °F 82.5 °F 64.0 °F 56% 29.94 in 10.0 mi ESE 6.9 mph - N/A   Mostly Cloudy
4:14 PM 82.0 °F 83.4 °F 64.0 °F 54% 29.96 in 4.0 mi SE 6.9 mph - N/A   Haze
4:23 PM 82.9 °F 84.4 °F 64.0 °F 53% 29.96 in 2.5 mi South 5.8 mph - N/A   Haze
4:30 PM 82.0 °F 83.4 °F 64.0 °F 54% 29.96 in 10.0 mi ESE 4.6 mph - N/A   Overcast
4:56 PM 81.0 °F 82.5 °F 64.0 °F 56% 29.94 in 10.0 mi Variable 3.5 mph - N/A   Mostly Cloudy
5:56 PM 82.0 °F 83.8 °F 64.9 °F 56% 29.94 in 10.0 mi Calm Calm - N/A   Overcast
6:56 PM 80.1 °F 81.9 °F 64.9 °F 60% 29.93 in 9.0 mi SSE 4.6 mph - N/A   Overcast
7:17 PM 80.1 °F 81.7 °F 64.0 °F 58% 29.94 in 1.8 mi SSE 5.8 mph - N/A   Haze
7:27 PM 79.0 °F - 64.9 °F 62% 29.94 in 3.0 mi SSE 3.5 mph - N/A   Haze
7:56 PM 78.1 °F - 64.9 °F 64% 29.92 in 10.0 mi Calm Calm - N/A   Partly Cloudy
8:56 PM 72.0 °F - 64.9 °F 78% 29.93 in 10.0 mi Calm Calm - N/A   Clear
9:56 PM 70.0 °F - 64.0 °F 81% 29.94 in 10.0 mi East 4.6 mph - N/A   Mostly Cloudy
10:27 PM 71.1 °F - 64.0 °F 78% 29.94 in 10.0 mi ESE 5.8 mph - N/A   Scattered Clouds
10:56 PM 70.0 °F - 63.0 °F 78% 29.92 in 10.0 mi ESE 5.8 mph - N/A   Clear
11:56 PM 70.0 °F - 63.0 °F 78% 29.92 in 10.0 mi ESE 5.8 mph - N/A   Clear